Regional Weather Roundup
Issued by NWS

Home | Current Version | Previous Version | Graphics & Text | Print | Product List | Glossary On
Versions: 1 2 3 4 5 6 7 8 9 10 11 12 13 14 15 16 17 18 19 20 21 22 23 24 25 26 27 28 29 30 31 32 33 34 35 36 37 38 39 40 41 42 43 44 45 46 47 48 49 50
000
ASUS45 KSLC 292110
RWRUT

UTAH REGIONAL WEATHER ROUNDUP
NATIONAL WEATHER SERVICE SALT LAKE CITY UT
300 PM MDT SUN MAY 29 2016

UTZ001>011-023>025-292200-

NORTHERN UTAH

CITY           SKY/WX    TMP DP  RH WIND       PRES   REMARKS
BRIGHAM CITY     N/A     76  35  22 SW6       30.04F
HILL AFB       MOSUNNY   74  40  28 W6        30.06F
LOGAN          SUNNY     73  42  32 CALM      30.04F
OGDEN          MOSUNNY   77  41  27 MISG      30.04F
PROVO AIRPORT  MOSUNNY   79  43  27 VRB6      30.04F
SALT LAKE CITY PTSUNNY   77  40  26 N8        30.03S THUNDER
VERNAL         CLOUDY    72  37  28 NW24G35   30.11S
WENDOVER       PTSUNNY   73  37  27 S9        30.04S
HEBER CITY     PTSUNNY   77  30  18 SW10G18   30.07F
WEST JORDAN    CLOUDY    64  46  52 SE9G18    30.06S

$$

UTZ012>022-026-027-292200-

SOUTHERN/CENTRAL UTAH

CITY           SKY/WX    TMP DP  RH WIND       PRES   REMARKS
BLANDING       SUNNY     79  20  11 SW8G18    30.18F
BRYCE CANYON   SUNNY     69  19  15 SE14G28   30.20F
CEDAR CITY     MOSUNNY   81  17   9 S16G26    30.05F
DELTA          SUNNY     81  27  13 S12G22    30.03F
HANKSVILLE     MOSUNNY   84  28  13 SE7       30.03F
MILFORD        MOSUNNY   83  29  14 E15       30.01F
MOAB/CYNLANDS  SUNNY     84  27  12 CALM      30.01F
PRICE          CLOUDY    71  29  21 W17G31    30.13F
ST GEORGE      MOCLDY    90  34  13 W5G16     29.93F
KANAB          MOSUNNY   82  14   7 S6G16     30.07

$$

REGIONAL REPORTS     COLORADO/ARIZONA

CITY           SKY/WX    TMP DP  RH WIND       PRES   REMARKS
CRAIG, CO      CLOUDY    71  38  29 S8        30.15F
GRAND JUNCTION CLOUDY    78  27  15 CALM      30.05F
RIFLE          CLOUDY    76  33  21 NE10G17   30.12S
MONTROSE       CLOUDY    71  30  21 SE15G24   30.18F
CORTEZ         SUNNY     80  20  10 S10G22    30.10F
PAGE, AZ       SUNNY     87   5   4 S9G18     29.99F
GRAND CANYON   MOSUNNY   77  16  10 S3G21     30.15F
KINGMAN        SUNNY     84  24  11 VRB6      29.99F
FLAGSTAFF      SUNNY     69  18  14 SW12G20   30.20F

$$

REGIONAL REPORTS    NEVADA/IDAHO/WYOMING

CITY           SKY/WX    TMP DP  RH WIND       PRES   REMARKS
LAS VEGAS, NV  MOSUNNY   91  23   8 E9        29.86F
ELY            PTSUNNY   69  31  24 VRB3      30.14F
ELKO           MOSUNNY   77  38  24 SW10      30.05F
POCATELLO, ID  CLOUDY    76  38  25 W13       30.05F
BURLEY         MOSUNNY   76  38  25 VRB5      30.00F
EVANSTON, WY   CLOUDY    66  32  28 W12G22    30.17F
ROCK SPRINGS   CLOUDY    68  30  24 NW13      30.17F
KEMMERER         N/A     64  32  29 W7G20     30.19F

$$



USA.gov is the U.S. government's official web portal to all federal, state and local government web resources and services.